DW5893 Weather Reports


time (UTC)temp
C
wind
direction
speed
KPH
gust
KPH
rain 1hr
cm
rain 24hr
cm
rain mn
cm
humidity
%
barometer
mb
20260506193047 10 360 11.3 0.0 0.00 0.00 0.00 27 1009.0
20260506192546 10 360 9.7 0.0 0.00 0.00 0.00 26 1009.2
20260506192146 10 360 9.7 0.0 0.00 0.00 0.00 27 1009.4
20260506191548 10 360 9.7 0.0 0.00 0.00 0.00 26 1009.4
20260506191045 10 360 12.9 0.0 0.00 0.00 0.00 26 1009.6
20260506190545 10 360 14.5 0.0 0.00 0.00 0.00 24 1009.7
20260506190046 10 360 14.5 0.0 0.00 0.00 0.00 26 1009.7
20260506185543 10 360 12.9 0.0 0.00 0.00 0.00 27 1009.8
20260506185042 10 360 11.3 0.0 0.00 0.00 0.00 27 1009.7
20260506184547 10 360 11.3 0.0 0.00 0.00 0.00 27 1009.9
20260506184040 10 360 11.3 0.0 0.00 0.00 0.00 26 1010.0
20260506183540 9 360 9.7 0.0 0.00 0.00 0.00 27 1010.0
20260506183038 9 360 14.5 0.0 0.00 0.00 0.00 27 1010.2
20260506182538 9 360 12.9 0.0 0.00 0.00 0.00 26 1010.4
20260506182137 9 360 11.3 0.0 0.00 0.00 0.00 27 1010.5
20260506181536 8 360 11.3 0.0 0.00 0.00 0.00 27 1010.5
20260506181037 9 360 12.9 0.0 0.00 0.00 0.00 27 1010.7
20260506180535 9 360 14.5 0.0 0.00 0.00 0.00 26 1010.7
20260506180034 9 360 12.9 0.0 0.00 0.00 0.00 26 1010.8
20260506175533 9 360 12.9 0.0 0.00 0.00 0.00 27 1011.0
20260506175035 9 360 12.9 0.0 0.00 0.00 0.00 27 1010.9
20260506174532 8 360 12.9 0.0 0.00 0.00 0.00 26 1011.0
20260506174034 8 360 9.7 0.0 0.00 0.00 0.00 27 1011.0
20260506173530 8 360 12.9 0.0 0.00 0.00 0.00 28 1011.1
20260506173033 8 360 14.5 0.0 0.00 0.00 0.00 28 1011.2
20260506172528 8 360 12.9 0.0 0.00 0.00 0.00 28 1011.3
20260506172128 8 360 11.3 0.0 0.00 0.00 0.00 29 1011.3
20260506171529 8 360 11.3 0.0 0.00 0.00 0.00 32 1011.3
20260506171031 8 360 12.9 0.0 0.00 0.00 0.00 30 1011.6
20260506170526 8 360 11.3 0.0 0.00 0.00 0.00 30 1011.6
20260506170026 8 360 11.3 0.0 0.00 0.00 0.00 30 1011.7
20260506165525 8 360 11.3 0.0 0.00 0.00 0.00 33 1011.7
20260506165024 8 360 9.7 0.0 0.00 0.00 0.00 32 1011.9
20260506164523 8 5 9.7 0.0 0.00 0.00 0.00 34 1011.9
20260506164025 7 360 9.7 0.0 0.00 0.00 0.00 34 1012.0
20260506163523 7 360 9.7 0.0 0.00 0.00 0.00 33 1012.0
20260506163027 7 360 9.7 0.0 0.00 0.00 0.00 34 1012.0
20260506162524 7 360 9.7 0.0 0.00 0.00 0.00 36 1012.1
20260506162120 6 360 9.7 0.0 0.00 0.00 0.00 39 1012.2
20260506161519 6 360 9.7 0.0 0.00 0.00 0.00 39 1012.2
20260506161017 6 360 8.0 0.0 0.00 0.00 0.00 40 1012.3
20260506160516 6 360 8.0 0.0 0.00 0.00 0.00 40 1012.5
20260506160016 6 360 6.4 0.0 0.00 0.00 0.00 40 1012.5
20260506155514 6 360 3.2 0.0 0.00 0.00 0.00 43 1012.5
20260506155012 5 360 6.4 0.0 0.00 0.00 0.00 44 1012.5
20260506154512 5 360 6.4 0.0 0.00 0.00 0.00 44 1012.6
20260506154016 5 360 6.4 0.0 0.00 0.00 0.00 45 1012.6
20260506153511 5 360 6.4 0.0 0.00 0.00 0.00 45 1012.6
20260506153010 5 360 4.8 0.0 0.00 0.00 0.00 46 1012.7
20260506152509 4 360 6.4 0.0 0.00 0.00 0.00 47 1012.8
20260506152108 4 360 6.4 0.0 0.00 0.00 0.00 48 1012.9
20260506151509 4 360 6.4 0.0 0.00 0.00 0.00 48 1012.9
20260506151007 4 360 6.4 0.0 0.00 0.00 0.00 49 1013.0
20260506150506 3 360 4.8 0.0 0.00 0.00 0.00 48 1013.1
20260506150005 3 360 6.4 0.0 0.00 0.00 0.00 50 1013.1
20260506145504 3 360 6.4 0.0 0.00 0.00 0.00 49 1013.1
20260506145002 2 224 6.4 0.0 0.00 0.00 0.00 49 1013.1
20260506144504 2 360 4.8 0.0 0.00 0.00 0.00 50 1013.1
20260506144001 2 360 4.8 0.0 0.00 0.00 0.00 50 1013.1
20260506143600 2 360 6.4 0.0 0.00 0.00 0.00 50 1013.3
20260506143059 2 360 6.4 0.0 0.00 0.00 0.00 51 1013.3
20260506142559 1 360 4.8 0.0 0.00 0.00 0.00 51 1013.3
20260506142059 1 360 6.4 0.0 0.00 0.00 0.00 52 1013.5
20260506141556 1 241 4.8 0.0 0.00 0.00 0.00 52 1013.5
20260506141055 1 360 4.8 0.0 0.00 0.00 0.00 53 1013.4
20260506140553 0 360 3.2 0.0 0.00 0.00 0.00 54 1013.5
20260506140053 0 225 4.8 0.0 0.00 0.00 0.00 54 1013.4
20260506135552 0 225 4.8 0.0 0.00 0.00 0.00 54 1013.4
20260506135050 0 223 4.8 0.0 0.00 0.00 0.00 54 1013.5
20260506134550 0 360 3.2 0.0 0.00 0.00 0.00 54 1013.5
20260506134049 0 208 3.2 0.0 0.00 0.00 0.00 56 1013.5
20260506133548 0 208 3.2 0.0 0.00 0.00 0.00 56 1013.5
20260506133047 -1 207 3.2 0.0 0.00 0.00 0.00 56 1013.5
20260506132545 -1 207 3.2 0.0 0.00 0.00 0.00 57 1013.6
20260506132045 -1 207 4.8 0.0 0.00 0.00 0.00 58 1013.6
20260506131551 -1 207 4.8 0.0 0.00 0.00 0.00 58 1013.6
20260506131043 -2 360 4.8 0.0 0.00 0.00 0.00 60 1013.7
20260506130541 -2 202 4.8 0.0 0.00 0.00 0.00 61 1013.6
20260506130057 -2 202 4.8 0.0 0.00 0.00 0.00 63 1013.6
20260506125538 -3 202 1.6 0.0 0.00 0.00 0.00 66 1013.5
20260506125038 -4 202 0.0 0.0 0.00 0.00 0.00 69 1013.6
20260506124536 -5 202 0.0 0.0 0.00 0.00 0.00 71 1013.5
20260506124035 -5 202 0.0 0.0 0.00 0.00 0.00 74 1013.5
20260506123534 -6 202 0.0 0.0 0.00 0.00 0.00 74 1013.5
20260506123034 -7 202 0.0 0.0 0.00 0.00 0.00 74 1013.5
20260506122535 -7 202 0.0 0.0 0.00 0.00 0.00 75 1013.4
20260506122032 -8 202 0.0 0.0 0.00 0.00 0.00 75 1013.4
20260506121534 -8 202 0.0 0.0 0.00 0.00 0.00 75 1013.4
20260506121032 -8 202 0.0 0.0 0.00 0.00 0.00 75 1013.4
20260506120534 -9 202 0.0 0.0 0.00 0.00 0.00 76 1013.3
20260506120034 -9 202 0.0 0.0 0.00 0.00 0.00 76 1013.2
20260506115530 -9 202 0.0 0.0 0.00 0.00 0.00 76 1013.1
20260506115029 -10 202 0.0 0.0 0.00 0.00 0.00 76 1013.1
20260506114534 -10 202 0.0 0.0 0.00 0.00 0.00 76 1013.0
20260506114029 -10 202 0.0 0.0 0.00 0.00 0.00 76 1013.0
20260506113529 -10 202 0.0 0.0 0.00 0.00 0.00 76 1012.9
20260506113028 -10 202 0.0 0.0 0.00 0.00 0.00 76 1012.9
20260506112528 -10 202 0.0 0.0 0.00 0.00 0.00 76 1012.9
20260506112028 -10 202 0.0 0.0 0.00 0.00 0.00 76 1012.8
20260506111528 -10 202 0.0 0.0 0.00 0.00 0.00 76 1012.8
20260506111027 -10 202 0.0 0.0 0.00 0.00 0.00 77 1012.8
20260506110530 -10 202 1.6 0.0 0.00 0.00 0.00 76 1012.8
20260506110027 -10 202 1.6 0.0 0.00 0.00 0.00 75 1012.8
20260506105526 -10 202 0.0 0.0 0.00 0.00 0.00 76 1012.8
20260506105028 -10 202 0.0 0.0 0.00 0.00 0.00 76 1012.8
20260506104528 -10 202 0.0 0.0 0.00 0.00 0.00 75 1012.9
20260506104024 -10 202 0.0 0.0 0.00 0.00 0.00 75 1012.8
20260506103524 -10 202 0.0 0.0 0.00 0.00 0.00 75 1012.8
20260506103029 -10 202 0.0 0.0 0.00 0.00 0.00 74 1012.8
20260506102523 -10 202 0.0 0.0 0.00 0.00 0.00 74 1012.7
20260506102023 -10 202 0.0 0.0 0.00 0.00 0.00 74 1012.6
20260506101539 -10 202 0.0 0.0 0.00 0.00 0.00 74 1012.7
20260506101022 -9 202 0.0 0.0 0.00 0.00 0.00 74 1012.6
20260506100522 -9 202 0.0 0.0 0.00 0.00 0.00 74 1012.6
20260506100022 -9 202 0.0 0.0 0.00 0.00 0.00 74 1012.6
20260506095522 -9 202 1.6 0.0 0.00 0.00 0.00 75 1012.6
20260506095024 -9 202 1.6 0.0 0.00 0.00 0.00 75 1012.6
20260506094525 -10 202 3.2 0.0 0.00 0.00 0.00 74 1012.6
20260506094024 -9 202 4.8 0.0 0.00 0.00 0.00 73 1012.5
20260506093519 -9 202 3.2 0.0 0.00 0.00 0.00 73 1012.6
20260506093022 -9 202 3.2 0.0 0.00 0.00 0.00 72 1012.6
20260506092518 -9 202 1.6 0.0 0.00 0.00 0.00 72 1012.5
20260506092019 -8 202 0.0 0.0 0.00 0.00 0.00 72 1012.6
20260506091518 -8 202 0.0 0.0 0.00 0.00 0.00 72 1012.5
20260506091017 -8 202 0.0 0.0 0.00 0.00 0.00 72 1012.5
20260506090516 -8 202 0.0 0.0 0.00 0.00 0.00 72 1012.4
20260506090017 -8 202 0.0 0.0 0.00 0.00 0.00 72 1012.4
20260506085516 -8 202 0.0 0.0 0.00 0.00 0.00 72 1012.4
20260506085016 -8 202 0.0 0.0 0.00 0.00 0.00 72 1012.5
20260506084517 -8 202 1.6 0.0 0.00 0.00 0.00 72 1012.4
20260506084017 -8 202 1.6 0.0 0.00 0.00 0.00 72 1012.5
20260506083517 -8 202 1.6 0.0 0.00 0.00 0.00 72 1012.4
20260506083017 -8 202 3.2 0.0 0.00 0.00 0.00 71 1012.4
20260506082515 -8 202 1.6 0.0 0.00 0.00 0.00 71 1012.4
20260506082014 -8 202 1.6 0.0 0.00 0.00 0.00 70 1012.4
20260506081514 -8 202 3.2 0.0 0.00 0.00 0.00 70 1012.4
20260506081014 -8 202 3.2 0.0 0.00 0.00 0.00 71 1012.4
20260506080514 -8 360 1.6 0.0 0.00 0.00 0.00 70 1012.4
20260506073509 -8 202 1.6 0.0 0.00 0.00 0.00 69 1012.4
20260506073018 -8 202 1.6 0.0 0.00 0.00 0.00 69 1012.4
20260506072509 -8 202 1.6 0.0 0.00 0.00 0.00 68 1012.4
20260506072007 -8 202 1.6 0.0 0.00 0.00 0.00 68 1012.4
20260506071508 -8 202 1.6 0.0 0.00 0.00 0.00 68 1012.4
20260506071010 -7 202 3.2 0.0 0.00 0.00 0.00 68 1012.3
20260506070506 -7 202 3.2 0.0 0.00 0.00 0.00 68 1012.3
20260506062057 -6 202 1.6 0.0 0.00 0.00 0.00 62 1012.2
20260506061056 -6 360 0.0 0.0 0.00 0.00 0.00 61 1012.1
20260506060554 -5 202 0.0 0.0 0.00 0.00 0.00 60 1012.1
20260506051046 -3 360 1.6 0.0 0.00 0.00 0.00 54 1011.7
20260506050544 -3 360 0.0 0.0 0.00 0.00 0.00 54 1011.6
20260506045041 -2 360 3.2 0.0 0.00 0.00 0.00 53 1011.4
20260506044631 -2 360 3.2 0.0 0.00 0.00 0.00 50 1011.5
20260506044038 -1 360 0.0 0.0 0.00 0.00 0.00 48 1011.5
20260506043537 -1 360 0.0 0.0 0.00 0.00 0.00 49 1011.5
20260506043036 0 360 0.0 0.0 0.00 0.00 0.00 48 1011.5
20260506042535 0 360 0.0 0.0 0.00 0.00 0.00 48 1011.5
20260506042032 1 360 0.0 0.0 0.00 0.00 0.00 44 1011.5
20260506041032 1 360 0.0 0.0 0.00 0.00 0.00 45 1011.4
20260506040534 1 360 0.0 0.0 0.00 0.00 0.00 45 1011.4
20260506040032 1 360 1.6 0.0 0.00 0.00 0.00 44 1011.4
20260506035531 1 360 1.6 0.0 0.00 0.00 0.00 44 1011.4
20260506035033 1 360 1.6 0.0 0.00 0.00 0.00 45 1011.4
20260506034559 2 360 1.6 0.0 0.00 0.00 0.00 45 1011.3
20260506034032 2 360 1.6 0.0 0.00 0.00 0.00 45 1011.3
20260506033530 2 360 3.2 0.0 0.00 0.00 0.00 44 1011.3
20260506033032 2 360 4.8 0.0 0.00 0.00 0.00 44 1011.2
20260506032530 2 360 6.4 0.0 0.00 0.00 0.00 43 1011.2
20260506032029 3 360 8.0 0.0 0.00 0.00 0.00 41 1011.2
20260506031032 4 360 11.3 0.0 0.00 0.00 0.00 40 1011.1
20260506030529 5 360 11.3 0.0 0.00 0.00 0.00 39 1011.1
20260506030028 5 360 9.7 0.0 0.00 0.00 0.00 39 1011.0
20260506025530 5 360 8.0 0.0 0.00 0.00 0.00 39 1010.9
20260506025027 5 360 8.0 0.0 0.00 0.00 0.00 39 1010.8
20260506024528 5 360 6.4 0.0 0.00 0.00 0.00 40 1010.8
20260506024027 5 360 6.4 0.0 0.00 0.00 0.00 39 1010.7
20260506023526 5 360 6.4 0.0 0.00 0.00 0.00 39 1010.7
20260506023026 5 360 6.4 0.0 0.00 0.00 0.00 39 1010.6
20260506022526 5 360 6.4 0.0 0.00 0.00 0.00 39 1010.5
20260506022026 5 360 9.7 0.0 0.00 0.00 0.00 39 1010.5
20260506021026 6 360 12.9 0.0 0.00 0.00 0.00 37 1010.5
20260506020526 6 360 14.5 0.0 0.00 0.00 0.00 37 1010.5
20260506020025 6 360 16.1 0.0 0.00 0.00 0.00 36 1010.5
20260506015528 6 360 16.1 0.0 0.00 0.00 0.00 36 1010.4
20260506015029 6 360 16.1 0.0 0.00 0.00 0.00 37 1010.4
20260506014529 6 360 16.1 0.0 0.00 0.00 0.00 36 1010.3
20260506014025 6 360 14.5 0.0 0.00 0.00 0.00 36 1010.3
20260506013526 6 360 16.1 0.0 0.00 0.00 0.00 36 1010.2
20260506013025 7 360 14.5 0.0 0.00 0.00 0.00 36 1010.2
20260506012525 7 360 14.5 0.0 0.00 0.00 0.00 36 1010.2
20260506012026 7 360 16.1 0.0 0.00 0.00 0.00 36 1010.2
20260506011025 7 360 17.7 0.0 0.00 0.00 0.00 35 1010.2
20260506010525 7 360 17.7 0.0 0.00 0.00 0.00 35 1010.1
20260506010024 7 360 17.7 0.0 0.00 0.00 0.00 35 1010.1
20260506005524 7 360 14.5 0.0 0.00 0.00 0.00 35 1010.2
20260506005025 7 360 14.5 0.0 0.00 0.00 0.00 36 1010.1
20260506004534 7 360 16.1 0.0 0.00 0.00 0.00 36 1010.0
20260506004023 7 360 16.1 0.0 0.00 0.00 0.00 36 1009.9
20260506003523 7 360 16.1 0.0 0.00 0.00 0.00 36 1009.9
20260506003037 7 360 14.5 0.0 0.00 0.00 0.00 36 1010.0
20260506002523 7 360 14.5 0.0 0.00 0.00 0.00 36 1010.0
20260506002023 7 360 16.1 0.0 0.00 0.00 0.00 36 1010.1
20260506001024 7 360 14.5 0.0 0.00 0.00 0.00 36 1010.2
20260506000524 7 360 16.1 0.0 0.00 0.00 0.00 37 1010.2
20260506000026 7 360 17.7 0.0 0.00 0.00 0.00 36 1010.2
20260505235523 7 360 16.1 0.0 0.00 0.00 0.00 36 1010.2
20260505235024 7 360 16.1 0.0 0.00 0.00 0.00 36 1010.1
20260505234533 7 360 17.7 0.0 0.00 0.00 0.00 37 1010.2
20260505234029 7 360 19.3 0.0 0.00 0.00 0.00 37 1010.2
20260505233525 7 360 19.3 0.0 0.00 0.00 0.00 37 1010.1
20260505233022 7 360 19.3 0.0 0.00 0.00 0.00 37 1010.1
20260505232523 7 360 19.3 0.0 0.00 0.00 0.00 37 1010.1
20260505232023 7 360 22.5 0.0 0.00 0.00 0.00 38 1010.0
20260505231023 7 360 20.9 0.0 0.00 0.00 0.00 37 1010.0
20260505230522 7 360 20.9 0.0 0.00 0.00 0.00 37 1010.0
20260505230025 7 360 22.5 0.0 0.00 0.00 0.00 38 1010.0
20260505225526 7 360 22.5 0.0 0.00 0.00 0.00 37 1009.9
20260505225023 7 360 22.5 0.0 0.00 0.00 0.00 37 1009.9
20260505224522 7 360 22.5 0.0 0.00 0.00 0.00 37 1009.9
20260505224023 7 360 20.9 0.0 0.00 0.00 0.00 36 1010.0
20260505223522 7 360 20.9 0.0 0.00 0.00 0.00 36 1009.9
20260505223021 8 360 22.5 0.0 0.00 0.00 0.00 36 1009.9
20260505222524 7 360 22.5 0.0 0.00 0.00 0.00 37 1009.9
20260505222021 7 360 22.5 0.0 0.00 0.00 0.00 37 1009.9
20260505221021 7 360 19.3 0.0 0.00 0.00 0.00 36 1009.9
20260505220522 7 360 20.9 0.0 0.00 0.00 0.00 37 1009.9
20260505220029 7 360 22.5 0.0 0.00 0.00 0.00 37 1009.9
20260505215521 7 360 22.5 0.0 0.00 0.00 0.00 36 1009.9
20260505215021 7 360 20.9 0.0 0.00 0.00 0.00 36 1010.0
20260505214523 7 360 19.3 0.0 0.00 0.00 0.00 37 1010.0
20260505214021 7 360 19.3 0.0 0.00 0.00 0.00 36 1010.0
20260505213519 7 360 20.9 0.0 0.00 0.00 0.00 36 1010.0
20260505213021 7 360 20.9 0.0 0.00 0.00 0.00 36 1010.1
20260505212520 7 360 19.3 0.0 0.00 0.00 0.00 37 1010.1
20260505212019 7 360 22.5 0.0 0.00 0.00 0.00 37 1010.2
20260505211019 7 360 24.1 0.0 0.00 0.00 0.00 36 1010.2
20260505210519 7 360 19.3 0.0 0.00 0.00 0.00 36 1010.2
20260505210019 7 360 22.5 0.0 0.00 0.00 0.00 36 1010.3
20260505205518 7 360 20.9 0.0 0.00 0.00 0.00 38 1010.4
20260505205017 7 360 20.9 0.0 0.00 0.00 0.00 37 1010.3
20260505204516 6 360 19.3 0.0 0.00 0.00 0.00 38 1010.5
20260505204016 6 360 17.7 0.0 0.00 0.00 0.00 37 1010.4
20260505203516 7 360 20.9 0.0 0.00 0.00 0.00 38 1010.5
20260505203016 6 360 20.9 0.0 0.00 0.00 0.00 38 1010.3
20260505202516 7 360 19.3 0.0 0.00 0.00 0.00 38 1010.4
20260505202016 6 360 17.7 0.0 0.00 0.00 0.00 38 1010.4
20260505201015 6 360 19.3 0.0 0.00 0.00 0.00 38 1010.4
20260505200515 6 360 19.3 0.0 0.00 0.00 0.00 39 1010.4
20260505200015 6 360 20.9 0.0 0.00 0.00 0.00 39 1010.4
20260505195515 6 360 20.9 0.0 0.00 0.00 0.00 38 1010.5
20260505195017 6 360 17.7 0.0 0.00 0.00 0.00 38 1010.4
20260505194528 6 360 16.1 0.0 0.00 0.00 0.00 37 1010.5
20260505194014 6 360 16.1 0.0 0.00 0.00 0.00 38 1010.5
20260505193513 6 360 17.7 0.0 0.00 0.00 0.00 39 1010.4